Location: Champignolles
(47.0543°N, 4.5663°E)
Time: 15:54:00
(UTC+00:00)

Okean-O - Pass Details

Date: 30 November 2020
Orbit: 639 x 640 km, 98.2° (Epoch: 27 January)

Event Time Altitude Azimuth Distance (km) Brightness Sun altitude
Rises 17:34:19 0° 145° (SE) 2,933 5.8 -16.4°
Reaches altitude 10° 17:36:36 10° 138° (SE) 2,029 4.9 -16.8°
Maximum altitude 17:40:44 40° 69° (ENE) 942 3.0 -17.4°
Drops below altitude 10° 17:44:54 10° 360° (N) 2,044 5.1 -18.1°
Sets 17:47:12 0° 353° (N) 2,958 6.0 -18.5°
